1485230401.06,49740,9.0,73296.3,-7.77,-41.73,-41.87,0,*52
1485230402.31,49741,9.0,73298.8,-7.79,-41.81,-41.93,0,*55
1485230403.52,49742,9.0,73296.5,-7.79,-41.41,-41.61,0,*57
1485230404.79,49743,8.94,73296.3,-7.77,-41.67,-41.87,0,*54
1485230406.08,49744,9.0,73300.5,-7.77,-41.55,-41.67,0,*5C
1485230407.31,49745,9.0,73298.0,-7.77,-41.49,-41.73,0,*55
1485230408.54,49746,9.0,73302.3,-7.77,-41.49,-41.73,0,*56
1485230409.8,49747,9.0,73302.3,-7.77,-41.49,-41.55,0,*53
1485230411.09,49748,9.0,73298.0,-7.77,-41.55,-41.67,0,*50
1485230412.35,49749,9.0,73300.0,-7.77,-41.49,-41.55,0,*5D
1485230413.64,49750,9.0,73296.5,-7.77,-41.55,-41.67,0,*59
1485230414.87,49751,9.0,73300.0,-7.77,-41.73,-41.73,0,*59
1485230416.16,49752,9.0,73300.3,-7.77,-41.67,-41.67,0,*5A
1485230417.43,49753,9.0,73300.8,-7.77,-41.67,-41.73,0,*5E
1485230418.69,49754,9.0,73302.5,-7.77,-41.67,-41.87,0,*52
1485230419.95,49755,9.0,73300.5,-7.77,-41.67,-41.87,0,*53
1485230421.18,49756,9.0,73300.8,-7.77,-41.73,-42.13,0,*5B
1485230422.41,49757,9.0,73296.3,-7.79,-42.05,-42.13,0,*56
1485230423.64,49758,9.0,73300.5,-7.77,-42.13,-42.37,0,*56
1485230424.9,49759,9.0,73298.5,-7.77,-42.19,-42.37,0,*5D
1485230426.17,49760,9.0,73302.0,-7.79,-41.93,-42.19,0,*54
1485230427.45,49761,9.0,73300.8,-7.77,-42.05,-42.19,0,*57
1485230428.74,49762,9.0,73300.5,-7.77,-42.05,-42.31,0,*5E
1485230429.97,49763,9.0,73302.3,-7.79,-41.93,-42.25,0,*58
1485230431.23,49764,9.0,73300.0,-7.77,-41.87,-41.93,0,*5A
1485230432.49,49765,9.0,73300.3,-7.77,-41.67,-41.87,0,*50
1485230433.77,49766,9.0,73298.0,-7.77,-41.67,-41.93,0,*56
1485230434.98,49767,8.94,73296.5,-7.79,-41.99,-42.25,0,*56
1485230436.21,49768,9.0,73296.5,-7.79,-41.93,-42.13,0,*56
1485230437.45,49769,9.0,73296.5,-7.79,-41.99,-42.19,0,*57
1485230438.68,49770,9.0,73298.5,-7.79,-41.93,-42.13,0,*5F
1485230439.94,49771,9.0,73296.3,-7.81,-41.81,-42.13,0,*5A
1485230441.2,49772,9.0,73300.0,-7.79,-41.81,-41.93,0,*55
1485230442.45,49773,9.0,73300.5,-7.79,-41.81,-41.93,0,*54
1485230443.68,49774,9.0,73298.5,-7.79,-41.73,-41.93,0,*5E
1485230444.91,49775,9.0,73302.8,-7.79,-41.81,-42.13,0,*59
1485230446.12,49776,9.0,73300.5,-7.79,-41.99,-42.13,0,*53
1485230447.35,49777,8.94,73298.3,-7.77,-41.87,-42.13,0,*53
1485230448.58,49778,8.94,73296.8,-7.79,-41.61,-41.93,0,*51
1485230449.82,49779,9.0,73298.8,-7.79,-41.55,-41.73,0,*59
1485230451.05,49780,9.0,73300.0,-7.79,-41.55,-41.61,0,*5C
1485230452.26,49781,9.0,73300.0,-7.79,-41.61,-41.73,0,*59
1485230453.5,49782,9.0,73298.5,-7.79,-41.55,-41.73,0,*5D
1485230454.73,49783,9.0,73300.0,-7.79,-41.61,-41.81,0,*56
1485230456.0,49784,9.0,73300.0,-7.79,-41.55,-41.55,0,*5F
1485230457.21,49785,9.0,73300.5,-7.79,-41.61,-41.73,0,*5D
1485230458.5,49786,9.0,73296.5,-7.77,-41.55,-41.67,0,*52
1485230459.73,49787,9.0,73296.8,-7.79,-41.81,-41.99,0,*55
1485230460.96,49788,9.0,73298.3,-7.79,-41.73,-41.93,0,*5D
1485230462.25,49789,9.0,73298.0,-7.77,-41.67,-41.67,0,*5C
1485230463.49,49790,9.0,73296.8,-7.79,-41.61,-41.81,0,*54
1485230464.78,49791,9.0,73300.5,-7.77,-41.55,-41.67,0,*54
1485230466.01,49792,9.0,73296.8,-7.79,-41.73,-41.81,0,*55
1485230467.23,49793,9.0,73298.8,-7.79,-41.73,-41.93,0,*57
1485230468.5,49794,9.0,73298.8,-7.77,-41.67,-41.87,0,*5E
1485230469.73,49795,9.0,73298.3,-7.79,-41.81,-41.99,0,*56
1485230470.97,49796,9.0,73296.0,-7.79,-41.81,-41.99,0,*55
1485230472.2,49797,9.0,73298.5,-7.79,-41.81,-41.99,0,*54
1485230473.47,49798,9.0,73298.5,-7.79,-41.81,-42.19,0,*50
1485230474.7,49799,9.0,73296.5,-7.79,-41.93,-42.13,0,*58
1485230475.95,49800,9.0,73298.8,-7.77,-41.73,-42.05,0,*50
1485230477.19,49801,9.0,73296.3,-7.79,-41.81,-41.99,0,*54
1485230478.45,49802,9.0,73298.5,-7.79,-41.67,-41.93,0,*55
1485230479.7,49803,9.0,73298.8,-7.77,-41.73,-42.05,0,*53
1485230480.93,49804,9.0,73300.0,-7.79,-41.93,-42.13,0,*53
1485230482.17,49805,9.0,73298.0,-7.79,-41.93,-42.13,0,*52
1485230483.42,49806,9.0,73296.8,-7.79,-41.93,-41.93,0,*5A
1485230484.65,49807,9.0,73300.8,-7.79,-41.93,-42.13,0,*50
1485230485.89,49808,9.0,73296.8,-7.79,-41.93,-42.13,0,*5F
1485230487.12,49809,9.0,73302.0,-7.79,-41.99,-42.19,0,*5E
1485230488.35,49810,8.94,73298.8,-7.79,-41.93,-42.13,0,*56
1485230489.62,49811,9.0,73300.3,-7.79,-41.93,-42.19,0,*5D
1485230490.85,49812,9.0,73302.8,-7.79,-41.93,-42.13,0,*54
1485230492.08,49813,8.94,73296.3,-7.79,-41.81,-42.13,0,*56
1485230493.34,49814,9.0,73298.0,-7.79,-41.81,-41.93,0,*5A
1485230494.57,49815,9.0,73300.0,-7.79,-41.73,-41.81,0,*55
1485230495.8,49816,9.0,73300.0,-7.79,-41.55,-41.61,0,*5C
1485230497.04,49817,9.0,73296.0,-7.79,-41.17,-41.35,0,*5A
1485230498.3,49818,9.0,73296.8,-7.79,-41.23,-41.35,0,*52
1485230499.51,49819,9.0,73298.8,-7.79,-41.41,-41.61,0,*56
1485230500.77,49820,9.0,73296.5,-7.77,-41.55,-41.87,0,*5F
1485230502.01,49821,9.0,73302.5,-7.79,-41.55,-41.61,0,*58
1485230503.24,49822,9.0,73298.3,-7.79,-41.41,-41.55,0,*59
1485230504.48,49823,9.0,73296.0,-7.79,-41.61,-41.81,0,*53
1485230505.71,49824,9.0,73298.3,-7.77,-41.49,-41.73,0,*5D
1485230506.94,49825,9.0,73298.3,-7.79,-41.61,-41.81,0,*55
1485230508.17,49826,9.0,73296.5,-7.79,-41.73,-41.93,0,*56
1485230509.43,49827,9.0,73298.0,-7.77,-41.49,-41.55,0,*5A
1485230510.67,49828,9.0,73298.5,-7.79,-41.81,-41.99,0,*5F
1485230511.9,49829,9.0,73296.5,-7.79,-41.81,-41.99,0,*5E
1485230513.13,49830,9.0,73298.3,-7.79,-41.81,-42.13,0,*57
1485230514.37,49831,9.0,73298.3,-7.79,-41.81,-42.25,0,*53
1485230515.62,49832,9.0,73296.5,-7.77,-41.73,-41.93,0,*5D
1485230516.85,49833,9.0,73298.8,-7.79,-41.73,-41.81,0,*51
1485230518.08,49834,9.0,73300.5,-7.79,-41.61,-41.93,0,*56
1485230519.31,49835,9.0,73296.8,-7.79,-41.73,-41.93,0,*54
1485230520.57,49836,9.0,73296.8,-7.79,-41.81,-42.19,0,*5B
1485230521.78,49837,9.0,73296.5,-7.79,-41.73,-41.99,0,*5C
1485230523.01,49838,9.0,73300.0,-7.79,-41.73,-41.93,0,*59
1485230524.3,49839,9.0,73298.3,-7.77,-41.55,-41.67,0,*59
1485230525.57,49840,9.0,73296.5,-7.79,-41.55,-41.67,0,*59
1485230526.83,49841,8.94,73294.3,-7.77,-41.67,-41.73,0,*52
1485230528.06,49842,9.0,73296.8,-7.77,-41.73,-41.87,0,*5F
1485230529.29,49843,9.0,73298.8,-7.79,-41.61,-41.93,0,*56
1485230530.55,49844,9.0,73296.8,-7.77,-41.49,-41.67,0,*5E
1485230531.79,49845,9.0,73296.0,-7.79,-41.41,-41.55,0,*58
1485230533.03,49846,9.0,73296.5,-7.79,-41.55,-41.61,0,*59
1485230534.29,49847,9.0,73296.8,-7.77,-41.49,-41.67,0,*5D
1485230535.55,49848,8.94,73296.0,-7.77,-41.35,-41.49,0,*55
1485230536.81,49849,8.94,73294.8,-7.77,-41.35,-41.49,0,*54
1485230538.04,49850,9.0,73298.8,-7.79,-41.61,-41.81,0,*57
1485230539.27,49851,9.0,73298.8,-7.77,-41.49,-41.73,0,*5F
1485230540.48,49852,8.94,73296.0,-7.79,-41.61,-41.73,0,*58
1485230541.74,49853,9.0,73296.8,-7.77,-41.55,-41.73,0,*50
1485230542.95,49854,8.94,73296.5,-7.79,-41.73,-41.99,0,*59
1485230544.2,49855,9.0,73296.5,-7.77,-41.73,-42.05,0,*50
1485230545.47,49856,9.0,73298.8,-7.77,-41.67,-41.87,0,*5F
1485230546.72,49857,8.94,73296.5,-7.77,-41.73,-41.93,0,*5E
1485230547.97,49858,9.0,73296.3,-7.77,-41.93,-42.13,0,*54
1485230549.24,49859,9.0,73298.8,-7.79,-41.93,-42.19,0,*51
1485230550.5,49860,9.0,73296.0,-7.77,-41.87,-42.05,0,*5D
1485230551.73,49861,9.0,73298.3,-7.79,-41.99,-42.19,0,*50
1485230552.96,49862,9.0,73296.3,-7.79,-41.93,-42.13,0,*53
1485230554.19,49863,9.0,73298.3,-7.79,-41.73,-41.93,0,*57
1485230555.42,49864,9.0,73298.3,-7.77,-41.73,-41.99,0,*54
1485230556.66,49865,8.94,73292.0,-7.79,-41.81,-41.99,0,*56
1485230557.9,49866,9.0,73296.3,-7.79,-41.99,-42.19,0,*57
1485230559.13,49867,9.0,73298.5,-7.77,-41.73,-41.87,0,*58
1485230560.34,49868,9.0,73294.0,-7.79,-41.73,-41.99,0,*56
1485230561.57,49869,9.0,73296.8,-7.79,-41.81,-41.99,0,*5A
1485230562.8,49870,8.94,73292.5,-7.79,-41.73,-41.93,0,*55
1485230564.03,49871,9.0,73296.3,-7.79,-41.73,-41.93,0,*54
1485230565.26,49872,9.0,73296.0,-7.79,-41.73,-41.81,0,*54
1485230566.47,49873,9.0,73296.8,-7.79,-41.73,-41.73,0,*58
1485230567.71,49874,9.0,73298.8,-7.79,-41.55,-41.73,0,*5B
1485230568.94,49875,8.94,73292.3,-7.79,-41.61,-41.81,0,*50
1485230570.15,49876,9.0,73298.0,-7.79,-41.61,-41.73,0,*5E
1485230571.38,49877,9.0,73296.0,-7.79,-41.55,-41.61,0,*5B
1485230572.65,49878,8.94,73292.3,-7.77,-41.49,-41.67,0,*51
1485230573.88,49879,9.0,73294.5,-7.79,-41.61,-41.81,0,*5C
1485230575.09,49880,8.94,73294.0,-7.79,-41.61,-41.73,0,*57
1485230576.32,49881,9.0,73292.8,-7.79,-41.61,-41.81,0,*5B
1485230577.54,49882,8.94,73292.3,-7.79,-41.61,-41.73,0,*55
1485230578.75,49883,9.0,73296.5,-7.79,-41.61,-41.99,0,*50
1485230580.03,49884,9.0,73292.0,-7.77,-41.67,-41.93,0,*55
1485230581.26,49885,8.94,73292.3,-7.79,-41.73,-41.81,0,*5C
1485230582.51,49886,9.0,73294.0,-7.79,-41.81,-41.93,0,*51
1485230583.73,49887,9.0,73298.0,-7.79,-41.61,-41.73,0,*50
1485230584.96,49888,9.0,73296.3,-7.79,-41.81,-41.99,0,*55
1485230586.22,49889,9.0,73296.5,-7.79,-41.81,-41.93,0,*5E
1485230587.45,49890,8.94,73292.8,-7.79,-41.81,-41.99,0,*5C
1485230588.66,49891,9.0,73296.3,-7.79,-41.61,-41.73,0,*57
1485230589.9,49892,9.0,73296.0,-7.77,-41.17,-41.29,0,*54
1485230591.13,49893,9.0,73296.5,-7.79,-41.17,-41.35,0,*56
1485230592.34,49894,9.0,73296.5,-7.79,-41.17,-41.41,0,*52
1485230593.58,49895,8.94,73296.3,-7.79,-41.41,-41.35,0,*53
1485230594.87,49896,9.0,73294.8,-7.77,-41.55,-41.55,0,*5D
1485230596.13,49897,8.94,73294.8,-7.77,-41.55,-41.87,0,*53
1485230597.39,49898,9.0,73296.0,-7.77,-41.67,-41.87,0,*5D
1485230598.65,49899,8.94,73294.5,-7.79,-41.55,-41.81,0,*55
1485230599.89,49900,8.94,73294.5,-7.79,-41.61,-41.55,0,*5A
1485230601.1,49901,9.0,73298.3,-7.79,-41.61,-41.73,0,*5F
1485230602.31,49902,8.94,73292.8,-7.79,-41.61,-41.73,0,*5C
1485230603.57,49903,9.0,73294.8,-7.77,-41.49,-41.67,0,*5C
1485230604.81,49904,9.0,73292.0,-7.79,-41.55,-41.73,0,*5D
1485230606.07,49905,9.0,73296.0,-7.77,-41.67,-41.87,0,*58
1485230607.34,49906,9.0,73296.0,-7.77,-41.67,-41.87,0,*5B
1485230608.59,49907,8.94,73294.8,-7.77,-41.93,-42.13,0,*5F
1485230609.83,49908,9.0,73298.3,-7.77,-41.87,-42.13,0,*55
1485230611.08,49909,9.0,73296.0,-7.77,-41.87,-42.05,0,*53
1485230612.31,49910,9.0,73298.8,-7.79,-41.93,-42.13,0,*57
1485230613.58,49911,9.0,73296.3,-7.77,-41.87,-42.19,0,*57
1485230614.81,49912,9.0,73296.8,-7.77,-41.49,-41.49,0,*50
1485230616.06,49913,9.0,73298.0,-7.77,-41.29,-41.35,0,*5C
1485230617.32,49914,9.0,73294.0,-7.77,-41.29,-41.35,0,*5B
1485230618.55,49915,8.94,73292.3,-7.77,-41.49,-41.49,0,*57
1485230619.84,49916,8.94,73294.0,-7.77,-41.55,-41.67,0,*55
1485230621.1,49917,9.0,73294.0,-7.75,-41.67,-41.93,0,*5C
1485230622.36,49918,9.0,73292.3,-7.77,-41.67,-41.87,0,*54
1485230623.62,49919,9.0,73292.3,-7.77,-41.67,-41.87,0,*55
1485230624.85,49920,9.0,73294.8,-7.79,-41.73,-41.93,0,*51
1485230626.11,49921,9.0,73294.3,-7.77,-41.29,-41.35,0,*5D
1485230627.34,49922,8.94,73292.5,-7.77,-41.11,-41.29,0,*58
1485230628.6,49923,9.0,73296.0,-7.77,-41.29,-41.35,0,*5F
1485230629.85,49924,9.0,73294.5,-7.77,-41.49,-41.55,0,*58
1485230631.11,49925,9.0,73298.3,-7.77,-41.35,-41.49,0,*5F
1485230632.35,49926,9.0,73296.3,-7.75,-41.35,-41.49,0,*5E
1485230633.61,49927,9.0,73292.5,-7.77,-41.55,-41.73,0,*52
1485230634.87,49928,8.94,73294.0,-7.77,-41.55,-41.73,0,*5D
1485230636.13,49929,9.0,73294.0,-7.77,-41.55,-41.73,0,*5C
1485230637.39,49930,9.0,73296.3,-7.77,-41.55,-41.87,0,*5F
1485230638.63,49931,9.0,73296.5,-7.75,-41.67,-41.87,0,*5D
1485230639.86,49932,8.94,73292.8,-7.75,-41.87,-41.93,0,*55
1485230641.12,49933,9.0,73296.0,-7.73,-41.81,-41.99,0,*5E
1485230642.35,49934,9.0,73296.5,-7.75,-41.93,-42.13,0,*5D
1485230643.61,49935,9.0,73292.8,-7.75,-41.93,-42.05,0,*5B
1485230644.84,49936,8.94,73292.8,-7.75,-41.93,-42.13,0,*5F
1485230646.08,49937,9.0,73296.8,-7.77,-41.87,-42.13,0,*59
1485230647.33,49938,8.94,73288.5,-7.77,-41.73,-41.93,0,*56
1485230648.58,49939,8.94,73294.5,-7.77,-41.73,-41.93,0,*57
1485230649.79,49940,9.0,73294.8,-7.79,-41.73,-41.99,0,*5D
1485230651.04,49941,9.0,73292.5,-7.77,-41.73,-41.93,0,*58
1485230652.3,49942,8.94,73292.5,-7.77,-41.87,-42.05,0,*5C
1485230653.53,49943,9.0,73292.8,-7.77,-41.73,-41.87,0,*5F
1485230654.74,49944,9.0,73292.3,-7.79,-41.73,-41.87,0,*56
1485230656.0,49945,9.0,73296.5,-7.77,-41.67,-41.87,0,*5C
1485230657.24,49946,8.94,73292.8,-7.77,-41.73,-41.87,0,*5A
1485230658.47,49947,9.0,73296.3,-7.79,-41.55,-41.61,0,*59
1485230659.73,49948,9.0,73296.0,-7.77,-41.49,-41.67,0,*53
1485230660.99,49949,8.94,73292.0,-7.77,-41.35,-41.49,0,*55
1485230662.25,49950,9.0,73294.5,-7.77,-41.49,-41.67,0,*5A
1485230663.51,49951,9.0,73296.5,-7.77,-41.35,-41.49,0,*5C
1485230664.77,49952,8.94,73292.8,-7.77,-41.55,-41.73,0,*50
1485230666.0,49953,8.94,73288.8,-7.77,-41.29,-41.49,0,*53
1485230667.29,49954,8.94,73292.0,-7.77,-41.35,-41.35,0,*52
1485230668.5,49955,9.0,73298.3,-7.75,-41.29,-41.41,0,*5F
1485230669.73,49956,9.0,73292.0,-7.75,-41.35,-41.49,0,*59
1485230670.97,49957,8.94,73292.0,-7.75,-41.35,-41.49,0,*58
1485230672.2,49958,8.94,73292.5,-7.73,-41.29,-41.41,0,*54
1485230673.43,49959,8.94,73290.5,-7.75,-41.35,-41.49,0,*56
1485230674.67,49960,9.0,73294.0,-7.73,-41.49,-41.87,0,*53
1485230675.88,49961,9.0,73292.5,-7.75,-41.73,-41.87,0,*5D
1485230677.12,49962,9.0,73294.8,-7.75,-41.67,-41.73,0,*50
1485230678.36,49963,8.94,73292.5,-7.75,-41.55,-41.73,0,*50
1485230679.58,49964,8.94,73292.3,-7.75,-41.73,-41.93,0,*5D
1485230680.84,49965,9.0,73294.3,-7.75,-41.67,-41.93,0,*59
1485230682.08,49966,9.0,73294.3,-7.73,-41.61,-41.87,0,*5F
1485230683.34,49967,8.94,73290.8,-7.75,-41.55,-41.55,0,*50
1485230684.61,49968,9.0,73296.0,-7.75,-41.55,-41.67,0,*5E
1485230685.85,49969,9.0,73292.0,-7.75,-41.67,-41.87,0,*50
1485230687.11,49970,8.94,73292.3,-7.75,-41.67,-41.93,0,*5D
1485230688.32,49971,9.0,73298.0,-7.75,-41.87,-42.13,0,*59
1485230689.58,49972,8.94,73292.8,-7.73,-41.67,-41.99,0,*53
1485230690.81,49973,9.0,73296.0,-7.75,-41.73,-42.05,0,*57
1485230692.07,49974,9.0,73296.8,-7.75,-41.67,-41.93,0,*59
1485230693.3,49975,9.0,73296.8,-7.75,-41.87,-42.05,0,*5A
1485230694.53,49976,9.0,73294.3,-7.75,-41.73,-42.05,0,*52
1485230695.8,49977,9.0,73298.3,-7.75,-41.93,-42.31,0,*5A
1485230697.01,49978,9.0,73292.5,-7.75,-41.87,-42.13,0,*50
1485230698.25,49979,8.94,73294.5,-7.75,-42.13,-42.31,0,*5F
1485230699.49,49980,9.0,73294.8,-7.75,-42.13,-42.31,0,*59
1485230700.78,49981,9.0,73292.8,-7.77,-41.93,-42.31,0,*51
1485230702.05,49982,9.0,73294.3,-7.77,-42.13,-42.31,0,*59
1485230703.3,49983,9.0,73294.5,-7.77,-42.05,-42.13,0,*5F
1485230704.54,49984,8.94,73292.8,-7.79,-41.93,-42.13,0,*5A
1485230705.77,49985,9.0,73292.5,-7.77,-41.87,-42.13,0,*50
1485230707.03,49986,9.0,73296.8,-7.79,-41.93,-42.19,0,*52
1485230708.29,49987,8.94,73290.5,-7.79,-41.93,-42.19,0,*53
1485230709.53,49988,8.94,73292.0,-7.79,-41.99,-42.19,0,*56
1485230710.77,49989,9.0,73294.5,-7.79,-41.99,-42.19,0,*57
1485230711.97,49990,9.0,73294.0,-7.79,-41.99,-42.13,0,*55
1485230713.19,49991,9.0,73294.3,-7.79,-42.13,-42.25,0,*50
1485230714.45,49992,9.0,73292.8,-7.79,-41.93,-42.19,0,*57
1485230715.66,49993,8.94,73288.5,-7.79,-42.13,-42.37,0,*51
1485230716.92,49994,9.0,73294.0,-7.79,-41.93,-42.19,0,*51
1485230718.16,49995,9.0,73296.3,-7.79,-42.19,-42.25,0,*5E
1485230719.4,49996,9.0,73294.5,-7.81,-42.13,-42.25,0,*50
1485230720.66,49997,9.0,73292.3,-7.81,-41.93,-42.13,0,*5F
1485230721.9,49998,9.0,73294.0,-7.81,-41.99,-42.25,0,*5F
1485230723.13,49999,8.94,73288.5,-7.81,-42.13,-42.37,0,*5C
1485230724.37,50000,9.0,73292.3,-7.81,-41.99,-42.25,0,*5F
1485230725.63,50001,9.0,73288.0,-7.81,-42.19,-42.37,0,*56
1485230726.87,50002,9.0,73290.8,-7.81,-42.25,-42.37,0,*5A
1485230728.11,50003,8.94,73290.0,-7.83,-42.37,-42.57,0,*5C
1485230729.35,50004,9.0,73292.8,-7.83,-42.31,-42.51,0,*5B
1485230730.6,50005,8.94,73290.8,-7.83,-42.31,-42.63,0,*5B
1485230731.85,50006,9.0,73294.0,-7.83,-42.31,-42.51,0,*59
1485230733.09,50007,9.0,73294.0,-7.83,-42.31,-42.51,0,*58
1485230734.36,50008,9.0,73292.5,-7.83,-42.19,-42.45,0,*58
1485230735.6,50009,9.0,73296.5,-7.83,-41.81,-41.99,0,*59
1485230736.84,50010,9.0,73294.8,-7.81,-41.73,-41.73,0,*5A
1485230738.12,50011,9.0,73298.5,-7.81,-41.55,-41.81,0,*52
1485230739.37,50012,9.0,73292.3,-7.83,-41.67,-41.87,0,*54
1485230740.61,50013,9.0,73294.8,-7.83,-41.67,-41.99,0,*5A
1485230741.87,50014,9.0,73294.0,-7.81,-41.61,-41.93,0,*53
1485230743.08,50015,9.0,73294.8,-7.83,-41.49,-41.61,0,*57
1485230744.37,50016,9.0,73294.0,-7.81,-41.55,-41.55,0,*5C
1485230745.59,50017,9.0,73290.8,-7.83,-41.11,-41.41,0,*5A
1485230746.83,50018,9.0,73294.5,-7.81,-41.03,-41.17,0,*57
1485230748.05,50019,9.0,73294.0,-7.83,-41.11,-41.29,0,*5A
1485230749.28,50020,8.94,73292.3,-7.81,-41.17,-41.41,0,*5A
1485230750.55,50021,9.0,73294.8,-7.81,-41.55,-41.73,0,*5C
1485230751.81,50022,8.94,73290.8,-7.81,-41.55,-41.73,0,*5F
1485230753.07,50023,9.0,73296.0,-7.81,-41.61,-41.81,0,*54
1485230754.33,50024,9.0,73294.5,-7.81,-41.73,-41.93,0,*53
1485230755.62,50025,8.94,73292.8,-7.81,-41.35,-41.35,0,*5C
1485230756.86,50026,9.0,73298.3,-7.79,-41.17,-41.35,0,*58
1485230758.09,50027,9.0,73294.8,-7.79,-41.23,-41.41,0,*5D
1485230759.33,50028,8.94,73290.5,-7.79,-41.61,-41.81,0,*58
1485230760.59,50029,9.0,73294.8,-7.77,-41.67,-41.87,0,*57
1485230761.82,50030,9.0,73294.0,-7.79,-41.73,-41.81,0,*52
1485230763.06,50031,9.0,73294.5,-7.79,-41.61,-41.81,0,*50
1485230764.29,50032,9.0,73294.5,-7.79,-41.61,-41.81,0,*53
1485230765.55,50033,9.0,73294.0,-7.77,-41.55,-41.73,0,*56
1485230766.78,50034,8.94,73288.8,-7.79,-41.81,-42.13,0,*53
1485230768.02,50035,9.0,73294.5,-7.79,-41.81,-41.99,0,*53
1485230769.22,50036,8.94,73290.8,-7.79,-41.73,-41.99,0,*5D
1485230770.48,50037,8.94,73290.3,-7.79,-41.81,-41.93,0,*5B
1485230771.71,50038,9.0,73294.8,-7.79,-41.81,-42.13,0,*5F
1485230772.97,50039,9.0,73294.0,-7.77,-41.87,-42.05,0,*51
1485230774.21,50040,8.94,73290.8,-7.79,-41.99,-42.19,0,*53
1485230775.43,50041,9.0,73294.0,-7.79,-41.73,-41.93,0,*57
1485230776.69,50042,8.94,73292.0,-7.79,-41.81,-41.93,0,*59
1485230777.93,50043,8.94,73288.5,-7.79,-41.67,-41.99,0,*5A
1485230779.14,50044,9.0,73292.3,-7.79,-41.61,-41.73,0,*5F
1485230780.37,50045,9.0,73294.0,-7.79,-41.61,-41.81,0,*53
1485230781.58,50046,9.0,73294.8,-7.79,-41.41,-41.73,0,*5F
1485230782.8,50047,9.0,73290.5,-7.79,-41.61,-41.73,0,*5C
1485230784.02,50048,9.0,73290.8,-7.79,-41.73,-41.93,0,*5E
1485230785.25,50049,8.94,73290.3,-7.79,-41.73,-41.93,0,*5F
1485230786.46,50050,9.0,73294.3,-7.79,-41.73,-41.99,0,*5D
1485230787.69,50051,9.0,73288.3,-7.79,-41.73,-41.93,0,*56
1485230788.92,50052,9.0,73288.8,-7.79,-41.73,-41.93,0,*55
1485230790.15,50053,9.0,73294.3,-7.79,-41.61,-41.81,0,*54
1485230791.36,50054,9.0,73290.3,-7.79,-41.61,-41.73,0,*5E
1485230792.6,50055,9.0,73288.8,-7.79,-41.55,-41.73,0,*58
1485230793.83,50056,9.0,73292.8,-7.79,-41.41,-41.55,0,*5A
1485230795.1,50057,9.0,73290.3,-7.79,-41.35,-41.55,0,*58
1485230796.37,50058,9.0,73292.8,-7.79,-41.35,-41.55,0,*57
1485230797.61,50059,8.94,73290.3,-7.79,-41.41,-41.55,0,*55
1485230798.86,50060,9.0,73292.3,-7.77,-41.35,-41.49,0,*5F
1485230800.08,50061,9.0,73290.5,-7.79,-41.41,-41.41,0,*5B
1485230801.33,50062,8.94,73288.0,-7.77,-41.29,-41.35,0,*5B
1485230802.59,50063,8.94,73288.5,-7.77,-41.35,-41.49,0,*5C
1485230803.85,50064,9.0,73288.0,-7.77,-41.35,-41.49,0,*5B
1485230805.11,50065,9.0,73290.0,-7.77,-41.29,-41.55,0,*5A
1485230806.37,50066,9.0,73290.0,-7.77,-41.35,-41.49,0,*59
1485230807.62,50067,9.0,73290.8,-7.77,-41.35,-41.49,0,*58
1485230808.88,50068,9.0,73290.8,-7.77,-41.35,-41.49,0,*57
1485230810.15,50069,9.0,73294.8,-7.77,-41.49,-41.67,0,*51
1485230811.41,50070,9.0,73290.8,-7.77,-41.49,-41.55,0,*58
1485230812.69,50071,9.0,73294.8,-7.77,-41.35,-41.55,0,*52
1485230813.99,50072,8.94,73288.0,-7.77,-41.55,-41.67,0,*56
1485230815.24,50073,9.0,73290.3,-7.77,-41.55,-41.87,0,*59
1485230816.5,50074,9.0,73290.5,-7.77,-41.55,-41.87,0,*5E
1485230817.76,50075,8.94,73288.0,-7.77,-41.55,-41.73,0,*54
1485230819.03,50076,8.94,73288.3,-7.77,-41.49,-41.67,0,*5F
1485230820.29,50077,8.94,73290.3,-7.79,-41.35,-41.55,0,*5A
1485230821.52,50078,9.0,73294.5,-7.77,-41.11,-41.29,0,*56
1485230822.79,50079,9.0,73290.5,-7.75,-40.97,-41.35,0,*57
1485230824.03,50080,9.0,73294.8,-7.75,-41.49,-41.67,0,*54
1485230825.26,50081,9.0,73290.5,-7.75,-41.49,-41.55,0,*54
1485230826.5,50082,9.0,73290.3,-7.75,-41.49,-41.67,0,*56
1485230827.77,50083,9.0,73292.0,-7.75,-41.35,-41.55,0,*5D
1485230829.01,50084,9.0,73288.8,-7.75,-41.49,-41.67,0,*50
1485230830.24,50085,9.0,73288.0,-7.73,-41.49,-41.61,0,*51
1485230831.47,50086,9.0,73290.5,-7.73,-41.41,-41.61,0,*5A
1485230832.7,50087,8.94,73288.0,-7.73,-41.49,-41.73,0,*50
1485230833.96,50088,9.0,73290.8,-7.73,-41.61,-41.81,0,*58
1485230835.2,50089,9.0,73292.5,-7.75,-41.67,-41.73,0,*54
1485230836.44,50090,9.0,73292.5,-7.75,-41.49,-41.67,0,*55
1485230837.68,50091,9.0,73294.0,-7.75,-41.55,-41.73,0,*5C
1485230838.92,50092,9.0,73294.0,-7.75,-41.49,-41.67,0,*57
1485230840.16,50093,9.0,73290.0,-7.75,-41.49,-41.67,0,*56
1485230841.42,50094,9.0,73292.5,-7.75,-41.55,-41.67,0,*5C
1485230842.66,50095,8.94,73290.8,-7.75,-41.67,-41.87,0,*52
1485230843.92,50096,8.94,73290.8,-7.73,-41.61,-41.81,0,*57
1485230845.19,50097,9.0,73292.3,-7.75,-41.55,-41.67,0,*5F
1485230846.42,50098,9.0,73292.8,-7.73,-41.41,-41.61,0,*55
1485230847.65,50099,8.94,73288.0,-7.73,-41.61,-41.73,0,*55
1485230848.89,50100,8.94,73290.5,-7.75,-41.67,-41.87,0,*5F
1485230850.18,50101,9.0,73294.3,-7.73,-41.67,-41.81,0,*5E
1485230851.39,50102,9.0,73290.8,-7.75,-41.73,-41.87,0,*58
1485230852.65,50103,9.0,73288.8,-7.75,-41.67,-41.93,0,*59
1485230853.91,50104,9.0,73288.0,-7.75,-41.67,-42.05,0,*52
1485230855.15,50105,8.94,73290.8,-7.73,-41.61,-41.87,0,*5A
1485230856.38,50106,9.0,73292.0,-7.75,-41.73,-42.05,0,*55
1485230857.59,50107,9.0,73292.5,-7.75,-41.61,-41.87,0,*5E
1485230858.83,50108,9.0,73290.5,-7.75,-41.67,-41.73,0,*5C
1485230860.06,50109,9.0,73288.8,-7.73,-41.61,-41.61,0,*5E
1485230861.3,50110,9.0,73288.5,-7.75,-41.55,-41.73,0,*54
1485230862.53,50111,9.0,73288.5,-7.75,-41.55,-41.73,0,*55
1485230863.75,50112,9.0,73290.8,-7.75,-41.73,-41.87,0,*59
1485230864.98,50113,9.0,73290.3,-7.73,-41.49,-41.61,0,*5F
1485230866.21,50114,9.0,73294.0,-7.75,-41.55,-41.73,0,*50
1485230867.44,50115,9.0,73292.3,-7.75,-41.61,-41.81,0,*5B
1485230868.71,50116,9.0,73294.5,-7.75,-41.55,-41.67,0,*57
1485230869.94,50117,9.0,73292.3,-7.73,-41.49,-41.61,0,*5B
1485230871.15,50118,9.0,73290.3,-7.75,-41.29,-41.29,0,*58
1485230872.41,50119,9.0,73292.3,-7.73,-41.03,-41.23,0,*5D
1485230873.65,50120,9.0,73290.5,-7.73,-41.11,-41.29,0,*5E
1485230874.9,50121,9.0,73292.5,-7.73,-41.11,-41.23,0,*55
1485230876.14,50122,8.94,73290.8,-7.73,-41.11,-41.29,0,*5C
1485230877.4,50123,9.0,73292.8,-7.73,-41.23,-41.49,0,*5A
1485230878.66,50124,9.0,73290.5,-7.73,-41.67,-41.87,0,*5F
1485230879.94,50125,9.0,73290.0,-7.73,-41.67,-41.81,0,*58
1485230881.2,50126,8.94,73284.8,-7.73,-41.67,-41.99,0,*52
1485230882.44,50127,9.0,73290.0,-7.73,-41.49,-41.61,0,*58
1485230883.67,50128,9.0,73290.3,-7.73,-41.41,-41.49,0,*55
1485230884.93,50129,9.0,73290.8,-7.73,-41.49,-41.67,0,*50
1485230886.19,50130,9.0,73288.3,-7.73,-41.67,-41.87,0,*5A
1485230887.45,50131,9.0,73288.8,-7.73,-41.61,-41.81,0,*5B
1485230888.74,50132,9.0,73286.0,-7.73,-41.67,-41.81,0,*5E
1485230890.0,50133,8.94,73286.5,-7.73,-41.49,-41.67,0,*5B
1485230891.23,50134,9.0,73288.8,-7.73,-41.61,-41.61,0,*50
1485230892.47,50135,9.0,73286.0,-7.71,-41.49,-41.67,0,*5F
1485230893.7,50136,9.0,73286.8,-7.73,-41.49,-41.61,0,*58
1485230894.93,50137,9.0,73290.5,-7.73,-41.49,-41.61,0,*59
1485230896.16,50138,8.94,73284.3,-7.73,-41.49,-41.61,0,*56
1485230897.42,50139,9.0,73286.5,-7.73,-41.49,-41.67,0,*51
1485230898.68,50140,9.0,73286.5,-7.73,-41.49,-41.67,0,*5F
1485230899.89,50141,8.94,73286.3,-7.71,-41.49,-41.61,0,*5A
1485230901.09,50142,9.0,73286.5,-7.71,-41.41,-41.61,0,*51
1485230902.38,50143,8.94,73286.3,-7.69,-41.35,-41.55,0,*5D
1485230903.62,50144,8.94,73284.5,-7.71,-41.49,-41.67,0,*59
1485230904.85,50145,9.0,73290.8,-7.71,-41.61,-41.81,0,*5A
1485230906.08,50146,8.94,73288.3,-7.71,-41.49,-41.81,0,*53
1485230907.28,50147,9.0,73288.0,-7.71,-41.49,-41.49,0,*56
1485230908.48,50148,9.0,73288.8,-7.71,-41.49,-41.61,0,*53
1485230909.77,50149,8.94,73286.3,-7.69,-41.35,-41.55,0,*57
1485230911.03,50150,9.0,73288.5,-7.69,-41.55,-41.61,0,*5E
1485230912.23,50151,8.94,73284.3,-7.71,-41.61,-41.61,0,*51
1485230913.52,50152,9.0,73290.0,-7.69,-41.35,-41.55,0,*5D